Wind_Speed
28 28 27 27 28 28 29 29 30 31 32 32 32 34 34 35 36 36 36 36 36 36 37 37 37 38 38 38 39 39 40 41 41 40 40 40 40 40 40 39 39 39 39
28 28 27 27 27 28 29 30 30 30 30 31 32 33 34 34 35 36 35 36 36 37 37 37 38 38 38 38 39 40 40 41 41 41 40 40 40 41 41 41 41 41 41
28 28 28 28 28 28 29 29 29 29 30 31 32 32 33 33 34 35 35 35 36 37 37 37 37 37 38 38 38 39 39 41 42 42 42 42 41 41 40 41 41 41 41
30 29 28 28 28 29 29 28 28 29 29 30 31 32 33 34 34 34 34 35 35 36 36 36 36 37 38 39 39 39 39 40 41 42 43 43 43 42 42 41 41 42 41
31 30 29 28 28 29 29 28 29 28 28 29 31 31 32 32 33 33 34 34 34 34 35 36 37 37 38 39 39 39 40 40 40 41 42 43 43 43 43 43 43 42 42
31 31 30 29 28 28 29 29 29 29 29 30 31 31 32 32 32 34 34 34 35 35 35 36 36 37 38 39 39 39 40 41 41 41 41 43 43 43 43 44 45 44 43
33 32 31 29 28 28 28 29 29 30 30 30 31 32 33 32 32 33 35 35 36 35 36 37 37 37 38 39 39 39 40 40 41 41 41 42 42 42 43 44 44 45 45
33 32 31 30 29 29 28 29 29 29 30 30 30 31 32 32 32 33 34 35 36 36 36 37 37 37 37 38 40 40 41 41 42 43 43 42 42 43 43 43 44 45 46
31 31 31 31 30 30 30 30 29 30 30 30 30 30 31 31 31 32 34 34 36 36 36 37 37 37 38 38 39 40 41 42 42 43 44 44 44 44 45 45 45 46 45
31 31 31 31 31 31 30 30 30 30 30 29 30 30 30 32 32 32 33 33 33 35 35 36 37 38 39 39 40 40 41 42 43 43 43 45 45 45 45 45 46 46 45
31 31 31 31 31 30 30 29 30 30 30 29 30 30 30 31 32 32 33 33 34 35 36 36 37 37 38 39 40 41 42 42 43 44 44 45 45 45 45 45 45 45 45
32 31 31 31 31 31 30 30 30 30 29 29 30 30 31 31 32 33 33 34 35 36 36 37 39 39 39 40 41 41 41 42 43 43 43 44 44 44 45 45 45 45 45
33 32 32 32 31 31 31 31 31 31 30 30 30 31 31 31 32 32 33 34 35 36 37 38 39 39 39 40 41 42 42 42 42 42 42 43 43 44 44 44 44 44 45
33 33 33 32 32 32 32 31 31 31 31 30 30 31 31 32 32 33 34 35 36 36 37 38 39 39 39 40 41 42 42 42 42 43 43 43 43 44 44 45 46 45 45
33 33 33 33 32 32 32 31 31 31 31 31 31 32 32 33 34 34 34 35 35 36 36 37 37 38 38 39 40 41 41 42 42 43 43 44 44 44 45 45 46 47 47
33 33 33 33 33 33 32 32 31 31 32 32 32 33 33 33 34 34 34 35 35 35 36 37 37 37 37 38 40 40 40 41 41 41 42 43 43 44 45 46 46 47 48
34 34 33 33 34 34 33 33 33 33 33 34 34 35 35 34 34 34 35 35 36 36 36 37 38 38 38 39 39 40 41 41 41 41 41 43 44 45 46 46 46 47 48
34 33 34 34 34 34 34 34 34 34 34 34 35 35 36 36 35 35 36 36 36 36 36 37 37 38 39 39 39 40 41 42 42 42 42 43 44 45 46 46 46 46 47
34 33 34 35 35 35 35 35 35 35 35 36 36 36 36 36 36 36 36 37 37 38 38 38 38 39 39 40 40 40 40 41 42 42 43 43 44 45 46 46 47 47 47
34 34 34 34 35 35 36 36 36 36 36 37 37 38 37 37 37 38 38 38 39 39 39 39 39 40 40 41 41 41 41 41 42 43 43 44 44 45 46 47 48 48 48
34 34 35 35 35 35 36 36 36 37 37 37 37 37 37 37 38 38 38 38 39 39 39 39 39 40 41 41 41 41 42 42 43 43 44 44 45 45 46 47 48 49 50
34 35 35 35 35 35 36 36 37 37 37 37 37 36 37 37 37 37 37 37 37 38 37 37 38 39 39 40 41 42 42 42 43 43 43 43 44 45 47 48 48 49 50
35 35 35 36 36 36 37 37 38 37 37 36 36 36 37 37 37 37 37 37 37 37 37 37 37 38 39 39 39 39 39 40 40 41 42 42 43 44 45 46 47 47 48
35 36 37 37 37 37 37 38 38 37 37 37 37 37 36 36 37 37 38 38 38 38 38 37 37 37 38 38 38 38 39 39 40 40 41 42 42 43 43 43 44 45 46
34 35 36 36 36 36 37 36 36 36 36 36 37 37 37 36 36 36 36 36 36 37 37 36 37 37 37 37 38 38 38 39 39 40 40 41 41 41 41 42 43 44 45
32 32 33 34 34 34 34 35 35 35 35 35 35 36 35 35 35 35 35 35 36 35 36 36 37 37 37 37 37 37 37 38 38 38 38 39 39 40 40 41 41 42 42
Wind_Direction
276 274 273 271 268 266 264 263 264 264 262 260 256 253 251 252 249 248 250 251 251 251 251 250 250 249 249 250 249 248 248 248 249 251 252 253 253 252 252 253 253 254 255
276 275 273 271 269 267 266 265 265 265 263 260 257 256 253 254 251 249 251 252 252 251 251 251 250 249 250 250 249 250 250 250 250 252 253 254 254 254 253 254 254 254 255
277 276 275 273 270 269 268 267 266 266 265 261 257 257 254 255 253 250 251 252 252 252 252 252 251 250 250 250 250 251 251 251 252 253 255 256 255 255 256 255 254 255 255
276 277 278 275 271 269 268 266 265 266 266 262 258 256 256 255 254 252 251 251 251 251 252 252 252 251 251 252 252 252 252 253 254 254 256 257 256 255 255 254 254 254 255
276 276 277 277 274 269 266 265 264 265 265 262 258 256 256 255 253 252 251 251 251 251 252 252 252 253 253 253 254 254 254 254 255 256 256 256 257 256 255 254 254 256 257
276 277 277 276 275 271 266 264 264 264 264 262 258 257 256 257 255 254 253 252 252 253 254 255 255 255 255 255 255 255 254 254 255 257 257 256 257 257 256 256 256 256 257
276 277 276 274 272 271 268 267 266 265 265 262 259 257 258 259 258 258 256 255 254 255 255 255 255 256 257 255 255 255 255 254 255 257 258 258 258 258 257 257 257 257 257
275 276 276 273 269 268 268 266 265 265 264 264 264 261 260 261 260 259 257 257 254 254 255 255 256 258 258 257 257 256 255 255 256 257 257 257 258 259 258 257 258 258 257
274 274 273 272 269 267 267 266 266 264 263 264 265 264 261 260 259 259 258 258 256 254 256 257 258 258 259 259 259 258 258 258 258 259 258 258 259 259 259 258 259 259 259
270 271 271 270 269 268 267 267 266 265 264 265 264 263 262 260 258 259 259 259 259 257 257 258 260 260 260 260 259 258 259 260 261 261 261 260 260 260 260 260 260 260 260
267 268 268 268 267 268 267 268 267 265 265 265 264 261 261 261 260 259 259 259 259 260 259 259 260 260 261 261 261 260 261 262 263 262 261 261 260 259 261 261 261 262 261
265 266 265 265 266 266 267 267 267 266 266 265 263 261 261 261 260 260 259 260 260 260 260 259 260 260 261 262 261 261 262 263 264 263 262 262 261 261 263 262 262 262 261
264 264 262 261 264 265 265 267 267 266 266 266 263 262 262 261 261 261 261 261 261 262 261 262 261 261 262 261 261 261 262 263 262 262 263 262 261 262 263 263 263 263 263
263 262 261 260 261 262 263 265 265 265 265 265 264 263 263 264 264 264 264 263 263 263 263 263 263 262 262 263 262 262 262 261 262 262 263 262 263 263 263 263 263 263 264
261 260 260 260 261 263 263 265 265 265 265 265 265 263 264 265 265 266 266 265 264 265 265 265 264 263 263 263 263 262 261 262 263 264 264 264 264 264 264 263 263 264 265
261 259 260 260 260 262 263 264 266 266 266 266 266 265 265 266 266 267 268 267 266 266 267 266 265 265 264 265 265 264 263 264 265 265 265 265 265 266 265 265 265 266 266
261 260 261 262 262 262 263 264 265 265 265 266 267 267 266 266 266 267 267 268 267 268 268 267 265 266 266 268 268 267 265 265 266 266 266 267 267 267 266 266 267 267 267
262 262 263 263 264 263 263 264 265 266 266 267 268 269 269 268 268 267 266 267 268 269 269 269 266 266 267 268 268 266 266 265 266 266 267 267 267 266 266 267 267 268 268
263 264 264 264 265 265 264 264 265 267 267 268 270 270 270 269 268 268 267 267 268 269 270 270 269 268 268 268 268 268 268 267 267 267 267 268 267 266 266 266 266 267 267
263 264 265 265 265 265 266 266 266 267 269 270 270 270 270 268 268 268 269 269 269 269 269 270 271 270 269 268 269 270 270 269 268 268 268 268 269 267 266 266 267 268 268
264 265 266 266 267 267 266 267 268 268 269 270 271 271 271 270 269 269 270 272 271 271 270 271 270 270 270 270 270 271 270 270 270 270 270 270 270 269 268 268 268 268 268
266 267 267 267 267 268 268 268 269 270 270 271 271 271 271 271 270 270 270 271 272 272 273 273 272 271 270 270 271 271 271 271 271 272 271 270 269 269 270 270 270 270 270
268 268 268 268 268 269 269 269 270 271 271 271 271 271 270 270 271 271 271 271 271 272 273 274 274 273 272 271 272 271 271 271 272 272 271 270 270 271 270 270 270 270 270
270 270 269 269 270 270 271 270 270 271 271 270 270 270 270 271 271 272 273 273 272 273 273 275 275 275 274 273 272 273 273 273 273 273 272 271 271 271 271 270 270 270 271
271 270 270 270 270 270 271 271 271 271 270 270 270 270 270 271 272 273 274 274 273 273 274 275 275 275 275 274 274 274 273 273 273 274 273 273 272 272 271 271 272 272 273
270 270 271 271 270 270 271 271 271 270 270 270 270 270 270 271 272 274 275 275 274 273 275 276 276 276 275 275 275 273 273 273 273 274 273 273 273 273 272 272 272 274 274
Height
5714 5714 5714 5713 5713 5713 5714 5714 5714 5714 5715 5717 5718 5720 5723 5725 5728 5730 5733 5735 5738 5741 5743 5745 5748 5750 5753 5755 5757 5760 5762 5765 5767 5769 5772 5774 5776 5778 5780 5782 5783 5785 5787
5707 5706 5706 5706 5706 5706 5707 5707 5707 5707 5708 5709 5710 5712 5714 5717 5719 5721 5724 5726 5729 5731 5733 5736 5738 5741 5744 5746 5748 5750 5752 5755 5757 5759 5762 5764 5767 5768 5770 5772 5773 5775 5777
5699 5699 5699 5699 5699 5699 5700 5700 5700 5700 5701 5701 5703 5704 5706 5708 5710 5713 5715 5718 5720 5722 5724 5727 5729 5731 5734 5736 5739 5741 5743 5745 5747 5749 5751 5754 5756 5758 5761 5762 5763 5765 5767
5692 5692 5691 5691 5691 5692 5692 5693 5693 5693 5693 5694 5695 5697 5698 5700 5702 5704 5706 5709 5711 5713 5715 5718 5720 5723 5725 5727 5729 5731 5733 5735 5737 5739 5741 5743 5745 5747 5750 5752 5754 5755 5757
5685 5684 5684 5684 5684 5684 5685 5685 5686 5686 5687 5687 5687 5688 5690 5692 5694 5696 5698 5700 5703 5705 5707 5709 5711 5713 5715 5717 5719 5721 5723 5725 5727 5729 5730 5732 5734 5736 5738 5741 5743 5745 5746
5677 5677 5677 5676 5676 5676 5677 5677 5678 5678 5679 5679 5680 5681 5683 5684 5686 5688 5690 5692 5694 5696 5698 5700 5702 5704 5706 5707 5709 5711 5713 5715 5717 5718 5720 5721 5723 5725 5727 5729 5731 5733 5735
5669 5668 5668 5668 5668 5669 5669 5670 5671 5671 5671 5672 5673 5674 5675 5677 5678 5680 5681 5683 5685 5687 5689 5691 5693 5694 5695 5697 5699 5701 5703 5704 5706 5708 5709 5711 5712 5714 5716 5717 5719 5721 5723
5660 5660 5660 5660 5660 5661 5662 5662 5663 5663 5664 5665 5666 5667 5668 5668 5670 5671 5673 5674 5676 5678 5680 5682 5683 5684 5685 5687 5689 5691 5692 5694 5696 5697 5698 5700 5701 5703 5704 5706 5708 5709 5712
5651 5651 5651 5652 5653 5653 5654 5655 5655 5656 5657 5657 5658 5658 5659 5660 5661 5663 5664 5665 5667 5669 5671 5672 5673 5674 5675 5677 5678 5680 5682 5683 5684 5686 5687 5689 5690 5691 5692 5694 5696 5698 5700
5643 5643 5644 5644 5645 5645 5646 5647 5647 5648 5649 5649 5650 5650 5651 5652 5653 5654 5655 5657 5658 5659 5660 5662 5663 5664 5665 5666 5668 5669 5671 5672 5673 5674 5675 5677 5678 5679 5680 5682 5683 5685 5687
5635 5635 5635 5636 5637 5637 5638 5639 5640 5640 5641 5641 5642 5642 5643 5644 5645 5646 5647 5648 5649 5650 5651 5652 5653 5654 5655 5656 5657 5658 5660 5661 5662 5663 5664 5665 5665 5667 5668 5669 5671 5673 5675
5625 5626 5627 5628 5628 5629 5630 5631 5632 5632 5633 5633 5634 5634 5635 5635 5636 5637 5638 5639 5640 5640 5641 5642 5643 5644 5644 5645 5646 5647 5648 5649 5650 5651 5652 5653 5654 5655 5656 5658 5659 5660 5662
5616 5617 5618 5619 5620 5621 5622 5623 5623 5624 5624 5625 5625 5626 5626 5627 5627 5628 5629 5629 5630 5631 5631 5632 5632 5633 5633 5634 5635 5636 5637 5638 5639 5640 5641 5642 5643 5644 5645 5645 5647 5648 5649
5607 5608 5609 5610 5611 5612 5613 5614 5615 5615 5616 5616 5616 5617 5617 5618 5618 5619 5619 5620 5620 5621 5621 5621 5622 5622 5623 5623 5624 5624 5626 5626 5628 5629 5629 5630 5631 5632 5633 5634 5635 5636 5637
5598 5599 5600 5601 5602 5603 5604 5605 5605 5606 5606 5607 5607 5608 5608 5608 5609 5609 5610 5610 5610 5610 5611 5611 5611 5611 5612 5612 5613 5613 5614 5615 5616 5617 5618 5619 5619 5620 5620 5621 5622 5623 5624
5589 5590 5590 5591 5592 5594 5595 5595 5596 5596 5597 5598 5598 5598 5599 5599 5599 5599 5599 5600 5600 5600 5600 5600 5600 5600 5601 5601 5601 5601 5602 5603 5604 5605 5606 5607 5608 5608 5608 5609 5610 5610 5611
5579 5580 5581 5582 5583 5584 5585 5586 5587 5587 5588 5588 5588 5588 5589 5589 5589 5589 5589 5589 5589 5589 5589 5589 5589 5590 5590 5590 5589 5590 5590 5592 5593 5594 5594 5595 5596 5596 5597 5597 5597 5597 5598
5569 5570 5571 5572 5573 5574 5575 5576 5577 5577 5578 5578 5578 5578 5578 5578 5579 5579 5579 5579 5579 5579 5579 5579 5579 5579 5579 5579 5578 5579 5579 5580 5581 5582 5582 5583 5583 5584 5584 5584 5584 5585 5585
5560 5561 5562 5562 5563 5564 5565 5566 5566 5567 5567 5568 5568 5568 5568 5568 5568 5568 5568 5568 5568 5568 5568 5568 5568 5568 5568 5568 5568 5568 5568 5569 5569 5570 5570 5570 5570 5570 5571 5571 5571 5572 5572
5550 5551 5552 5552 5553 5554 5554 5555 5556 5556 5556 5557 5557 5557 5557 5557 5557 5557 5557 5557 5557 5557 5557 5557 5557 5557 5557 5556 5556 5556 5557 5557 5558 5558 5557 5557 5557 5557 5557 5557 5558 5558 5559
5540 5541 5542 5542 5543 5543 5544 5544 5544 5545 5545 5545 5545 5545 5545 5546 5546 5546 5546 5546 5546 5546 5546 5546 5545 5545 5545 5545 5545 5544 5544 5545 5545 5545 5545 5544 5544 5543 5543 5543 5544 5544 5544
5530 5531 5531 5532 5532 5532 5533 5533 5533 5534 5534 5534 5534 5534 5534 5534 5535 5535 5535 5534 5534 5534 5534 5534 5534 5533 5533 5533 5532 5532 5532 5532 5532 5532 5531 5531 5531 5530 5530 5530 5529 5529 5529
5520 5520 5520 5521 5521 5521 5522 5522 5522 5522 5522 5522 5523 5523 5523 5523 5523 5523 5523 5523 5523 5523 5523 5522 5522 5522 5522 5521 5521 5520 5520 5519 5519 5519 5518 5518 5517 5517 5516 5516 5516 5515 5515
5509 5509 5510 5510 5510 5510 5510 5510 5511 5511 5511 5511 5511 5511 5512 5512 5512 5512 5512 5512 5511 5511 5511 5511 5511 5510 5510 5509 5509 5508 5508 5507 5507 5506 5506 5505 5504 5504 5504 5503 5502 5502 5502
5499 5499 5499 5499 5499 5499 5499 5499 5499 5499 5499 5499 5499 5499 5500 5500 5500 5500 5500 5500 5500 5499 5499 5499 5499 5499 5499 5498 5497 5496 5496 5496 5495 5494 5494 5493 5492 5492 5491 5490 5490 5489 5488
5489 5488 5488 5488 5488 5488 5488 5488 5488 5488 5488 5488 5488 5488 5488 5488 5489 5489 5489 5488 5488 5488 5488 5487 5487 5487 5487 5486 5485 5485 5484 5484 5483 5482 5482 5481 5480 5480 5479 5478 5478 5477 5476